Time,TemperatureF,DewpointF,PressureIn,WindDirection,WindDirectionDegrees,WindSpeedMPH,WindSpeedGustMPH,Humidity,HourlyPrecipIn,Conditions,Clouds,dailyrainin,SolarRadiationWatts/m^2,SoftwareType,DateUTC
2013-09-17 00:01:00,35.6,33.0,30.26,NNW,337,0.0,0.0,90,0.00,RA,,0.00,0.0,WeatherDisplay:10.37,2013-09-17 04:01:00,
2013-09-17 00:02:00,35.6,33.0,30.26,NNW,337,1.2,0.0,90,0.00,RA,,0.00,0.0,WeatherDisplay:10.37,2013-09-17 04:02:00,
2013-09-17 00:05:00,35.5,32.9,30.26,NNW,337,1.2,0.0,90,0.00,RA,,0.00,0.0,WeatherDisplay:10.37,2013-09-17 04:05:00,
2013-09-17 00:09:00,35.4,33.0,30.27,NNW,337,0.0,0.0,91,0.00,RA,,0.00,0.0,WeatherDisplay:10.37,2013-09-17 04:09:00,
2013-09-17 00:14:00,35.3,32.9,30.27,NNW,337,1.2,1.2,91,0.00,OVC,,0.00,0.0,WeatherDisplay:10.37,2013-09-17 04:14:00,
2013-09-17 00:19:00,35.3,32.9,30.27,NNW,337,1.2,0.0,91,0.00,OVC,,0.00,0.0,WeatherDisplay:10.37,2013-09-17 04:19:00,
2013-09-17 00:24:00,35.2,32.8,30.27,NNW,337,0.0,0.0,91,0.00,OVC,,0.00,0.0,WeatherDisplay:10.37,2013-09-17 04:24:00,
2013-09-17 00:29:00,35.2,33.1,30.28,NNW,337,2.3,2.3,92,0.00,OVC,,0.00,0.0,WeatherDisplay:10.37,2013-09-17 04:29:00,
2013-09-17 00:34:00,35.2,33.1,30.28,NNW,337,0.0,0.0,92,0.00,OVC,,0.00,0.0,WeatherDisplay:10.37,2013-09-17 04:34:00,
2013-09-17 00:39:00,35.2,33.1,30.28,NNW,337,0.0,0.0,92,0.00,OVC,,0.00,0.0,WeatherDisplay:10.37,2013-09-17 04:39:00,
2013-09-17 00:44:00,35.1,33.0,30.28,NNW,337,1.0,1.0,92,0.00,OVC,,0.00,0.0,WeatherDisplay:10.37,2013-09-17 04:44:00,
2013-09-17 00:49:00,35.1,33.0,30.28,NNW,337,0.0,0.0,92,0.00,OVC,,0.00,0.0,WeatherDisplay:10.37,2013-09-17 04:49:00,
2013-09-17 00:54:00,35.1,33.3,30.28,NNW,337,0.0,0.0,93,0.00,OVC,,0.00,0.0,WeatherDisplay:10.37,2013-09-17 04:54:00,
2013-09-17 00:59:00,35.1,33.3,30.28,NNW,337,0.0,0.0,93,0.00,OVC,,0.00,0.0,WeatherDisplay:10.37,2013-09-17 04:59:00,
2013-09-17 01:04:00,35.1,33.3,30.28,NNW,337,0.0,0.0,93,0.00,OVC,,0.00,0.0,WeatherDisplay:10.37,2013-09-17 05:04:00,
2013-09-17 01:09:00,35.1,33.3,30.29,NNW,337,0.0,0.0,93,0.00,OVC,,0.00,0.0,WeatherDisplay:10.37,2013-09-17 05:09:00,
2013-09-17 01:14:00,35.2,33.4,30.29,NNW,337,2.3,2.3,93,0.00,OVC,,0.00,0.0,WeatherDisplay:10.37,2013-09-17 05:14:00,
2013-09-17 01:19:00,35.3,33.5,30.29,NNW,337,1.2,1.2,93,0.00,OVC,,0.00,0.0,WeatherDisplay:10.37,2013-09-17 05:19:00,
2013-09-17 01:24:00,35.5,33.9,30.29,NNW,337,1.2,0.0,94,0.00,OVC,,0.00,0.0,WeatherDisplay:10.37,2013-09-17 05:24:00,
2013-09-17 01:29:00,35.6,34.0,30.30,NNW,337,1.2,1.2,94,0.00,OVC,,0.00,0.0,WeatherDisplay:10.37,2013-09-17 05:29:00,
2013-09-17 01:34:00,35.6,34.0,30.30,NNW,337,1.2,1.2,94,0.00,OVC,,0.00,0.0,WeatherDisplay:10.37,2013-09-17 05:34:00,
2013-09-17 01:39:00,35.6,34.0,30.30,NNW,337,0.0,0.0,94,0.00,OVC,,0.00,0.0,WeatherDisplay:10.37,2013-09-17 05:39:00,
2013-09-17 01:44:00,35.6,34.0,30.30,NNW,337,1.2,0.0,94,0.00,OVC,,0.00,0.0,WeatherDisplay:10.37,2013-09-17 05:44:00,
2013-09-17 01:49:00,35.6,34.0,30.30,NNW,337,1.2,0.0,94,0.00,OVC,,0.00,0.0,WeatherDisplay:10.37,2013-09-17 05:49:00,
2013-09-17 01:54:00,35.5,33.9,30.30,NNW,337,1.2,0.0,94,0.00,OVC,,0.00,0.0,WeatherDisplay:10.37,2013-09-17 05:54:00,
2013-09-17 01:59:00,35.5,33.9,30.30,NNW,337,1.2,1.2,94,0.00,OVC,,0.00,0.0,WeatherDisplay:10.37,2013-09-17 05:59:00,
2013-09-17 02:04:00,35.5,33.9,30.30,NNW,337,0.0,0.0,94,0.00,OVC,,0.00,0.0,WeatherDisplay:10.37,2013-09-17 06:04:00,
2013-09-17 02:09:00,35.5,33.9,30.30,NNW,337,1.2,1.2,94,0.00,OVC,,0.00,0.0,WeatherDisplay:10.37,2013-09-17 06:09:00,
2013-09-17 02:14:00,35.5,33.9,30.30,NNW,337,1.0,0.0,94,0.00,OVC,,0.00,0.0,WeatherDisplay:10.37,2013-09-17 06:14:00,
2013-09-17 02:19:00,35.6,34.0,30.30,NNW,337,1.2,1.2,94,0.00,OVC,,0.00,0.0,WeatherDisplay:10.37,2013-09-17 06:19:00,
2013-09-17 02:24:00,35.6,34.0,30.30,NNW,337,1.2,1.2,94,0.00,OVC,,0.00,0.0,WeatherDisplay:10.37,2013-09-17 06:24:00,
2013-09-17 02:29:00,35.6,34.0,30.30,NNW,337,1.2,1.2,94,0.00,OVC,,0.00,0.0,WeatherDisplay:10.37,2013-09-17 06:29:00,
2013-09-17 02:34:00,35.5,33.9,30.30,NNW,337,0.0,0.0,94,0.00,OVC,,0.00,0.0,WeatherDisplay:10.37,2013-09-17 06:34:00,
2013-09-17 02:39:00,35.5,33.9,30.30,NNW,337,0.0,0.0,94,0.00,OVC,,0.00,0.0,WeatherDisplay:10.37,2013-09-17 06:39:00,
2013-09-17 02:44:00,35.5,33.9,30.30,NNW,337,1.2,1.2,94,0.00,OVC,,0.00,0.0,WeatherDisplay:10.37,2013-09-17 06:44:00,
2013-09-17 02:49:00,35.4,33.8,30.30,NNW,337,0.0,0.0,94,0.00,OVC,,0.00,0.0,WeatherDisplay:10.37,2013-09-17 06:49:00,
2013-09-17 02:54:00,35.3,33.7,30.30,NNW,337,0.0,0.0,94,0.00,OVC,,0.00,0.0,WeatherDisplay:10.37,2013-09-17 06:54:00,
2013-09-17 02:59:00,35.3,33.7,30.30,NNW,337,1.2,1.2,94,0.00,OVC,,0.00,0.0,WeatherDisplay:10.37,2013-09-17 06:59:00,
2013-09-17 03:04:00,35.2,33.6,30.30,NNW,337,0.0,0.0,94,0.00,OVC,,0.00,0.0,WeatherDisplay:10.37,2013-09-17 07:04:00,
2013-09-17 03:09:00,35.2,33.6,30.31,NNW,337,0.0,0.0,94,0.00,OVC,,0.00,0.0,WeatherDisplay:10.37,2013-09-17 07:09:00,
2013-09-17 03:14:00,35.0,33.4,30.31,NNW,337,0.0,0.0,94,0.00,OVC,,0.00,0.0,WeatherDisplay:10.37,2013-09-17 07:14:00,
2013-09-17 03:19:00,34.9,33.3,30.31,NNW,337,0.0,0.0,94,0.00,OVC,,0.00,0.0,WeatherDisplay:10.37,2013-09-17 07:19:00,
2013-09-17 03:24:00,34.7,33.2,30.31,NNW,337,1.2,0.0,94,0.00,OVC,,0.00,0.0,WeatherDisplay:10.37,2013-09-17 07:24:00,
2013-09-17 03:29:00,34.5,33.0,30.31,NNW,337,0.0,0.0,94,0.00,OVC,,0.00,0.0,WeatherDisplay:10.37,2013-09-17 07:29:00,
2013-09-17 03:34:00,34.4,32.9,30.32,NNW,337,0.0,0.0,94,0.00,OVC,,0.00,0.0,WeatherDisplay:10.37,2013-09-17 07:34:00,
2013-09-17 03:39:00,34.4,32.9,30.32,NNW,337,1.2,1.2,94,0.00,OVC,,0.00,0.0,WeatherDisplay:10.37,2013-09-17 07:39:00,
2013-09-17 03:44:00,34.5,33.0,30.32,NNW,337,1.2,1.2,94,0.00,OVC,,0.00,0.0,WeatherDisplay:10.37,2013-09-17 07:44:00,
2013-09-17 03:49:00,34.6,33.1,30.32,NNW,337,0.0,0.0,94,0.00,OVC,,0.00,0.0,WeatherDisplay:10.37,2013-09-17 07:49:00,
2013-09-17 03:54:00,34.6,33.1,30.32,NNW,337,0.0,0.0,94,0.00,OVC,,0.00,0.0,WeatherDisplay:10.37,2013-09-17 07:54:00,
2013-09-17 03:59:00,34.6,33.1,30.32,NNW,337,0.0,0.0,94,0.00,OVC,,0.00,0.0,WeatherDisplay:10.37,2013-09-17 07:59:00,
2013-09-17 04:04:00,34.6,33.1,30.32,NNW,337,1.2,1.2,94,0.00,OVC,,0.00,0.0,WeatherDisplay:10.37,2013-09-17 08:04:00,
2013-09-17 04:09:00,34.5,33.0,30.33,NNW,337,2.3,2.3,94,0.00,OVC,,0.00,0.0,WeatherDisplay:10.37,2013-09-17 08:09:00,
2013-09-17 04:14:00,34.4,33.1,30.33,NNW,337,0.0,0.0,95,0.00,OVC,,0.00,0.0,WeatherDisplay:10.37,2013-09-17 08:14:00,
2013-09-17 04:19:00,34.4,33.1,30.33,NNW,337,2.3,2.3,95,0.00,OVC,,0.00,0.0,WeatherDisplay:10.37,2013-09-17 08:19:00,
2013-09-17 04:24:00,34.3,33.0,30.33,NNW,337,2.3,0.0,95,0.00,OVC,,0.00,0.0,WeatherDisplay:10.37,2013-09-17 08:24:00,
2013-09-17 04:29:00,34.3,33.0,30.33,NNW,337,1.2,1.2,95,0.00,OVC,,0.00,0.0,WeatherDisplay:10.37,2013-09-17 08:29:00,
2013-09-17 04:34:00,34.4,33.1,30.32,NNW,337,2.3,0.0,95,0.00,OVC,,0.00,0.0,WeatherDisplay:10.37,2013-09-17 08:34:00,
2013-09-17 04:39:00,34.4,33.1,30.33,NNW,337,1.2,1.2,95,0.00,OVC,,0.00,0.0,WeatherDisplay:10.37,2013-09-17 08:39:00,
2013-09-17 04:44:00,34.7,33.4,30.33,NNW,337,1.2,1.2,95,0.00,OVC,,0.00,0.0,WeatherDisplay:10.37,2013-09-17 08:44:00,
2013-09-17 04:49:00,34.7,33.4,30.33,NNW,337,0.0,0.0,95,0.00,OVC,,0.00,0.0,WeatherDisplay:10.37,2013-09-17 08:49:00,
2013-09-17 04:54:00,34.5,33.0,30.33,NNW,337,2.3,2.3,94,0.00,OVC,,0.00,0.0,WeatherDisplay:10.37,2013-09-17 08:54:00,
2013-09-17 04:59:00,34.4,32.9,30.33,NNW,337,1.0,1.0,94,0.00,OVC,,0.00,0.0,WeatherDisplay:10.37,2013-09-17 08:59:00,
2013-09-17 05:04:00,34.3,32.8,30.33,NNW,337,1.2,1.2,94,0.00,OVC,,0.00,0.0,WeatherDisplay:10.37,2013-09-17 09:04:00,
2013-09-17 05:09:00,34.2,32.7,30.33,NNW,337,0.0,0.0,94,0.00,OVC,,0.00,0.0,WeatherDisplay:10.37,2013-09-17 09:09:00,
2013-09-17 05:14:00,34.2,32.9,30.33,NNW,337,0.0,0.0,95,0.00,OVC,,0.00,0.0,WeatherDisplay:10.37,2013-09-17 09:14:00,
2013-09-17 05:19:00,34.1,32.8,30.34,NNW,337,0.0,0.0,95,0.00,OVC,,0.00,0.0,WeatherDisplay:10.37,2013-09-17 09:19:00,
2013-09-17 05:24:00,34.1,32.6,30.34,NNW,337,0.0,0.0,94,0.00,OVC,,0.00,0.0,WeatherDisplay:10.37,2013-09-17 09:24:00,
2013-09-17 05:29:00,34.0,32.5,30.34,NNW,337,0.0,0.0,94,0.00,OVC,,0.00,0.0,WeatherDisplay:10.37,2013-09-17 09:29:00,
2013-09-17 05:34:00,33.9,32.4,30.34,NNW,337,0.0,0.0,94,0.00,OVC,,0.00,0.0,WeatherDisplay:10.37,2013-09-17 09:34:00,
2013-09-17 05:39:00,33.9,32.6,30.34,NNW,337,0.0,0.0,95,0.00,OVC,,0.00,0.0,WeatherDisplay:10.37,2013-09-17 09:39:00,
2013-09-17 05:44:00,33.9,32.6,30.34,NNW,337,0.0,0.0,95,0.00,OVC,,0.00,0.0,WeatherDisplay:10.37,2013-09-17 09:44:00,
2013-09-17 05:49:00,33.9,32.6,30.35,NNW,337,0.0,0.0,95,0.00,OVC,,0.00,0.0,WeatherDisplay:10.37,2013-09-17 09:49:00,
2013-09-17 05:54:00,33.9,32.6,30.35,NNW,337,0.0,0.0,95,0.00,OVC,,0.00,0.0,WeatherDisplay:10.37,2013-09-17 09:54:00,
2013-09-17 05:59:00,33.8,32.5,30.35,NNW,337,2.3,2.3,95,0.00,OVC,,0.00,0.0,WeatherDisplay:10.37,2013-09-17 09:59:00,
2013-09-17 06:04:00,33.8,32.5,30.36,NNW,337,0.0,0.0,95,0.00,OVC,,0.00,0.0,WeatherDisplay:10.37,2013-09-17 10:04:00,
2013-09-17 06:09:00,33.7,32.4,30.36,NNW,337,0.0,0.0,95,0.00,OVC,,0.00,0.0,WeatherDisplay:10.37,2013-09-17 10:09:00,
2013-09-17 06:14:00,33.7,32.4,30.36,NNW,337,0.0,0.0,95,0.00,OVC,,0.00,0.0,WeatherDisplay:10.37,2013-09-17 10:14:00,
2013-09-17 06:19:00,33.6,32.3,30.36,NNW,337,0.0,0.0,95,0.00,OVC,,0.00,0.0,WeatherDisplay:10.37,2013-09-17 10:19:00,
2013-09-17 06:24:00,33.6,32.3,30.37,NNW,337,2.3,2.3,95,0.00,OVC,,0.00,0.0,WeatherDisplay:10.37,2013-09-17 10:24:00,
2013-09-17 06:29:00,33.5,32.2,30.38,NNW,337,0.0,0.0,95,0.00,OVC,,0.00,0.0,WeatherDisplay:10.37,2013-09-17 10:29:00,
2013-09-17 06:34:00,33.5,32.2,30.38,NNW,337,0.0,0.0,95,0.00,OVC,,0.00,0.0,WeatherDisplay:10.37,2013-09-17 10:34:00,
2013-09-17 06:39:00,33.3,32.0,30.38,NNW,337,0.0,0.0,95,0.00,OVC,,0.00,5.0,WeatherDisplay:10.37,2013-09-17 10:39:00,
2013-09-17 06:44:00,33.2,31.9,30.38,NNW,337,0.0,0.0,95,0.00,OVC,,0.00,7.0,WeatherDisplay:10.37,2013-09-17 10:44:00,
2013-09-17 06:49:00,33.1,31.8,30.38,NNW,337,0.0,0.0,95,0.00,OVC,,0.00,9.0,WeatherDisplay:10.37,2013-09-17 10:49:00,
2013-09-17 06:54:00,33.0,31.7,30.38,NNW,337,0.0,0.0,95,0.00,OVC,,0.00,11.0,WeatherDisplay:10.37,2013-09-17 10:54:00,
2013-09-17 06:59:00,33.0,31.7,30.39,NNW,337,0.0,0.0,95,0.00,OVC,,0.00,12.0,WeatherDisplay:10.37,2013-09-17 10:59:00,
2013-09-17 07:04:00,32.9,31.6,30.39,NNW,337,0.0,0.0,95,0.00,OVC,,0.00,14.0,WeatherDisplay:10.37,2013-09-17 11:04:00,
2013-09-17 07:09:00,32.9,31.6,30.39,NNW,337,0.0,0.0,95,0.00,OVC,,0.00,16.0,WeatherDisplay:10.37,2013-09-17 11:09:00,
2013-09-17 07:14:00,32.9,31.6,30.39,NNW,337,0.0,0.0,95,0.00,OVC,,0.00,23.0,WeatherDisplay:10.37,2013-09-17 11:14:00,
2013-09-17 07:19:00,32.9,31.6,30.40,NNW,337,0.0,0.0,95,0.00,OVC,,0.00,19.0,WeatherDisplay:10.37,2013-09-17 11:19:00,
2013-09-17 07:25:00,33.0,31.7,30.40,NNW,337,0.0,0.0,95,0.00,OVC,,0.00,21.0,WeatherDisplay:10.37,2013-09-17 11:25:00,
2013-09-17 07:30:00,33.1,32.1,30.40,NNW,337,0.0,0.0,96,0.00,OVC,,0.00,23.0,WeatherDisplay:10.37,2013-09-17 11:30:00,
2013-09-17 07:35:00,33.2,32.2,30.40,NNW,337,0.0,0.0,96,0.00,OVC,,0.00,28.0,WeatherDisplay:10.37,2013-09-17 11:35:00,
2013-09-17 07:39:00,33.3,32.3,30.40,NNW,337,0.0,0.0,96,0.00,OVC,,0.00,28.0,WeatherDisplay:10.37,2013-09-17 11:39:00,
2013-09-17 07:45:00,33.4,32.4,30.40,NNW,337,0.0,0.0,96,0.00,OVC,,0.00,28.0,WeatherDisplay:10.37,2013-09-17 11:45:00,
2013-09-17 07:50:00,33.5,32.5,30.40,NNW,337,0.0,0.0,96,0.00,OVC,,0.00,40.0,WeatherDisplay:10.37,2013-09-17 11:50:00,
2013-09-17 07:55:00,33.8,32.8,30.40,NNW,337,0.0,0.0,96,0.00,OVC,,0.00,54.0,WeatherDisplay:10.37,2013-09-17 11:55:00,
2013-09-17 08:00:00,34.2,33.2,30.40,NNW,337,0.0,0.0,96,0.00,OVC,,0.00,37.0,WeatherDisplay:10.37,2013-09-17 12:00:00,
2013-09-17 08:05:00,34.6,33.6,30.40,NNW,337,0.0,0.0,96,0.00,OVC,,0.00,39.0,WeatherDisplay:10.37,2013-09-17 12:05:00,
2013-09-17 08:10:00,34.8,33.8,30.40,NNW,337,0.0,0.0,96,0.00,OVC,,0.00,65.0,WeatherDisplay:10.37,2013-09-17 12:10:00,
2013-09-17 08:15:00,35.3,34.5,30.40,NNW,337,1.2,1.2,97,0.00,OVC,,0.00,39.0,WeatherDisplay:10.37,2013-09-17 12:15:00,
2013-09-17 08:21:00,36.0,35.2,30.41,NNW,337,0.0,0.0,97,0.00,OVC,,0.00,104.0,WeatherDisplay:10.37,2013-09-17 12:21:00,
2013-09-17 08:26:00,37.0,36.2,30.41,NNW,337,0.0,0.0,97,0.00,OVC,,0.00,72.0,WeatherDisplay:10.37,2013-09-17 12:26:00,
2013-09-17 08:32:00,37.5,36.7,30.41,NNW,337,0.0,0.0,97,0.00,OVC,,0.00,47.0,WeatherDisplay:10.37,2013-09-17 12:32:00,
2013-09-17 08:37:00,38.0,37.2,30.41,NNW,337,2.0,2.0,97,0.00,OVC,,0.00,70.0,WeatherDisplay:10.37,2013-09-17 12:37:00,
2013-09-17 08:42:00,38.6,37.8,30.41,NNW,341,1.2,0.0,97,0.00,OVC,,0.00,213.0,WeatherDisplay:10.37,2013-09-17 12:42:00,
2013-09-17 08:47:00,39.2,38.2,30.42,NNW,341,1.2,0.0,96,0.00,OVC,,0.00,58.0,WeatherDisplay:10.37,2013-09-17 12:47:00,
2013-09-17 08:52:00,40.1,38.8,30.42,NNW,341,1.2,0.0,95,0.00,OVC,,0.00,69.0,WeatherDisplay:10.37,2013-09-17 12:52:00,
2013-09-17 08:57:00,40.9,38.8,30.42,NNW,341,1.2,0.0,92,0.00,OVC,,0.00,411.0,WeatherDisplay:10.37,2013-09-17 12:57:00,
2013-09-17 09:02:00,41.7,38.7,30.42,NNW,341,1.2,0.0,89,0.00,OVC,,0.00,429.0,WeatherDisplay:10.37,2013-09-17 13:02:00,
2013-09-17 09:07:00,42.8,38.6,30.42,NNW,342,0.0,0.0,85,0.00,OVC,,0.00,441.0,WeatherDisplay:10.37,2013-09-17 13:07:00,
2013-09-17 09:12:00,43.6,38.8,30.43,NNW,342,0.0,0.1,83,0.00,OVC,,0.00,452.0,WeatherDisplay:10.37,2013-09-17 13:12:00,
2013-09-17 09:17:00,44.6,39.1,30.43,NNW,342,1.2,1.2,81,0.00,OVC,,0.00,461.0,WeatherDisplay:10.37,2013-09-17 13:17:00,
2013-09-17 09:22:00,45.6,38.8,30.43,NW,318,8.1,8.1,77,0.00,OVC,,0.00,466.0,WeatherDisplay:10.37,2013-09-17 13:22:00,
2013-09-17 09:27:00,46.4,39.2,30.43,NE,51,1.2,1.2,76,0.00,OVC,,0.00,469.0,WeatherDisplay:10.37,2013-09-17 13:27:00,
2013-09-17 09:32:00,46.9,38.7,30.43,NW,319,4.6,4.6,73,0.00,OVC,,0.00,492.0,WeatherDisplay:10.37,2013-09-17 13:32:00,
2013-09-17 09:37:00,47.4,39.2,30.43,North,355,5.0,5.0,73,0.00,OVC,,0.00,504.0,WeatherDisplay:10.37,2013-09-17 13:37:00,
2013-09-17 09:42:00,47.8,39.2,30.43,North,355,1.2,1.2,72,0.00,OVC,,0.00,520.0,WeatherDisplay:10.37,2013-09-17 13:42:00,
2013-09-17 09:47:00,48.2,38.9,30.43,NNW,337,4.0,4.0,70,0.00,OVC,,0.00,506.0,WeatherDisplay:10.37,2013-09-17 13:47:00,
2013-09-17 09:52:00,48.5,39.2,30.43,NNE,22,3.5,3.5,70,0.00,OVC,,0.00,547.0,WeatherDisplay:10.37,2013-09-17 13:52:00,
2013-09-17 09:57:00,48.7,37.8,30.43,NNW,333,4.6,4.6,66,0.00,OVC,,0.00,543.0,WeatherDisplay:10.37,2013-09-17 13:57:00,
2013-09-17 10:02:00,48.7,38.2,30.43,NNW,337,6.9,6.9,67,0.00,OVC,,0.00,104.0,WeatherDisplay:10.37,2013-09-17 14:02:00,
2013-09-17 10:07:00,48.6,38.1,30.43,NW,316,4.6,4.6,67,0.00,OVC,,0.00,113.0,WeatherDisplay:10.37,2013-09-17 14:07:00,
2013-09-17 10:12:00,48.6,38.5,30.43,NNW,343,4.0,4.0,68,0.00,OVC,,0.00,127.0,WeatherDisplay:10.37,2013-09-17 14:12:00,
2013-09-17 10:18:00,48.7,38.6,30.43,NW,320,3.5,3.5,68,0.00,OVC,,0.00,141.0,WeatherDisplay:10.37,2013-09-17 14:18:00,
2013-09-17 10:23:00,48.9,38.0,30.43,NNE,30,6.9,6.9,66,0.00,OVC,,0.00,626.0,WeatherDisplay:10.37,2013-09-17 14:23:00,
2013-09-17 10:28:00,49.1,39.0,30.43,North,350,4.0,4.0,68,0.00,OVC,,0.00,631.0,WeatherDisplay:10.37,2013-09-17 14:28:00,
2013-09-17 10:33:00,49.3,38.4,30.43,NNW,348,5.0,5.0,66,0.00,OVC,,0.00,650.0,WeatherDisplay:10.37,2013-09-17 14:33:00,
2013-09-17 10:38:00,49.5,39.0,30.43,NNW,342,3.5,3.5,67,0.00,OVC,,0.00,663.0,WeatherDisplay:10.37,2013-09-17 14:38:00,
2013-09-17 10:43:00,49.9,39.8,30.43,WNW,284,4.6,4.6,68,0.00,OVC,,0.00,675.0,WeatherDisplay:10.37,2013-09-17 14:43:00,
2013-09-17 10:48:00,50.5,40.3,30.43,NW,325,3.5,3.5,68,0.00,OVC,,0.00,682.0,WeatherDisplay:10.37,2013-09-17 14:48:00,
2013-09-17 10:53:00,51.1,39.7,30.43,NW,317,3.5,3.5,65,0.00,OVC,,0.00,694.0,WeatherDisplay:10.37,2013-09-17 14:53:00,
2013-09-17 10:58:00,51.6,39.4,30.43,ESE,114,5.8,5.8,63,0.00,OVC,,0.00,701.0,WeatherDisplay:10.37,2013-09-17 14:58:00,
2013-09-17 11:03:00,52.1,38.6,30.43,North,360,8.1,8.1,60,0.00,OVC,,0.00,708.0,WeatherDisplay:10.37,2013-09-17 15:03:00,
2013-09-17 11:08:00,52.6,40.8,30.43,ENE,74,7.0,7.0,64,0.00,OVC,,0.00,715.0,WeatherDisplay:10.37,2013-09-17 15:08:00,
2013-09-17 11:13:00,53.1,40.8,30.43,WNW,285,2.3,2.3,63,0.00,OVC,,0.00,729.0,WeatherDisplay:10.37,2013-09-17 15:13:00,
2013-09-17 11:18:00,53.5,40.8,30.43,NE,36,3.5,3.5,62,0.00,OVC,,0.00,737.0,WeatherDisplay:10.37,2013-09-17 15:18:00,
2013-09-17 11:23:00,53.9,39.5,30.43,NNW,329,4.6,4.6,58,0.00,OVC,,0.00,747.0,WeatherDisplay:10.37,2013-09-17 15:23:00,
2013-09-17 11:28:00,54.2,39.7,30.42,ENE,61,3.5,3.5,58,0.00,OVC,,0.00,756.0,WeatherDisplay:10.37,2013-09-17 15:28:00,
2013-09-17 11:33:00,54.3,40.3,30.43,North,355,3.5,3.5,59,0.00,OVC,,0.00,759.0,WeatherDisplay:10.37,2013-09-17 15:33:00,
2013-09-17 11:38:00,54.6,40.1,30.42,NNW,348,3.5,3.5,58,0.00,SCT,,0.00,756.0,WeatherDisplay:10.37,2013-09-17 15:38:00,
2013-09-17 11:43:00,54.8,39.8,30.42,North,5,4.0,4.0,57,0.00,CLR,,0.00,766.0,WeatherDisplay:10.37,2013-09-17 15:43:00,
2013-09-17 11:48:00,54.9,39.0,30.42,NNW,331,6.9,6.9,55,0.00,CLR,,0.00,770.0,WeatherDisplay:10.37,2013-09-17 15:48:00,
2013-09-17 11:53:00,54.9,39.0,30.42,NNW,331,5.0,5.0,55,0.00,CLR,,0.00,780.0,WeatherDisplay:10.37,2013-09-17 15:53:00,
2013-09-17 11:58:00,55.0,40.0,30.42,WNW,299,4.6,4.6,57,0.00,CLR,,0.00,793.0,WeatherDisplay:10.37,2013-09-17 15:58:00,
2013-09-17 12:03:00,55.0,40.5,30.42,West,264,5.8,5.8,58,0.00,CLR,,0.00,795.0,WeatherDisplay:10.37,2013-09-17 16:03:00,
2013-09-17 12:08:00,55.0,42.6,30.42,West,266,4.0,4.0,63,0.00,CLR,,0.00,796.0,WeatherDisplay:10.37,2013-09-17 16:08:00,
2013-09-17 12:13:00,55.2,41.5,30.42,ENE,65,2.3,2.3,60,0.00,CLR,,0.00,802.0,WeatherDisplay:10.37,2013-09-17 16:13:00,
2013-09-17 12:18:00,55.3,41.2,30.42,NE,47,4.6,4.6,59,0.00,CLR,,0.00,803.0,WeatherDisplay:10.37,2013-09-17 16:18:00,
2013-09-17 12:23:00,55.3,41.6,30.41,West,266,4.6,4.6,60,0.00,CLR,,0.00,805.0,WeatherDisplay:10.37,2013-09-17 16:23:00,
2013-09-17 12:28:00,55.1,41.5,30.41,NNE,32,9.2,9.2,60,0.00,CLR,,0.00,807.0,WeatherDisplay:10.37,2013-09-17 16:28:00,
2013-09-17 12:33:00,54.8,41.6,30.41,North,355,6.9,6.9,61,0.00,CLR,,0.00,805.0,WeatherDisplay:10.37,2013-09-17 16:33:00,
2013-09-17 12:38:00,54.6,41.4,30.41,West,269,4.0,4.0,61,0.00,CLR,,0.00,803.0,WeatherDisplay:10.37,2013-09-17 16:38:00,
2013-09-17 12:43:00,54.6,42.7,30.41,North,355,4.0,4.0,64,0.00,CLR,,0.00,807.0,WeatherDisplay:10.37,2013-09-17 16:43:00,
2013-09-17 12:48:00,55.0,40.9,30.41,WNW,294,2.3,2.3,59,0.00,CLR,,0.00,812.0,WeatherDisplay:10.37,2013-09-17 16:48:00,
2013-09-17 12:53:00,55.4,41.7,30.41,NNE,32,5.0,5.0,60,0.00,CLR,,0.00,812.0,WeatherDisplay:10.37,2013-09-17 16:53:00,
2013-09-17 12:58:00,55.6,41.9,30.41,WNW,286,5.8,5.8,60,0.00,CLR,,0.00,809.0,WeatherDisplay:10.37,2013-09-17 16:58:00,
2013-09-17 13:03:00,55.9,42.2,30.40,WNW,284,4.6,4.6,60,0.00,CLR,,0.00,807.0,WeatherDisplay:10.37,2013-09-17 17:03:00,
2013-09-17 13:08:00,55.9,41.3,30.40,West,278,3.5,3.5,58,0.00,CLR,,0.00,807.0,WeatherDisplay:10.37,2013-09-17 17:08:00,
2013-09-17 13:13:00,56.1,42.0,30.39,West,278,4.0,4.0,59,0.00,CLR,,0.00,803.0,WeatherDisplay:10.37,2013-09-17 17:13:00,
2013-09-17 13:18:00,56.4,42.2,30.39,West,271,6.0,6.0,59,0.00,CLR,,0.00,802.0,WeatherDisplay:10.37,2013-09-17 17:18:00,
2013-09-17 13:24:00,56.4,42.7,30.39,West,272,4.6,4.6,60,0.00,CLR,,0.00,796.0,WeatherDisplay:10.37,2013-09-17 17:24:00,
2013-09-17 13:29:00,56.6,43.7,30.39,West,274,6.0,6.0,62,0.00,CLR,,0.00,795.0,WeatherDisplay:10.37,2013-09-17 17:29:00,
2013-09-17 13:34:00,56.6,42.9,30.39,West,281,6.0,6.0,60,0.00,CLR,,0.00,789.0,WeatherDisplay:10.37,2013-09-17 17:34:00,
2013-09-17 13:39:00,56.5,41.9,30.39,West,269,5.0,5.0,58,0.00,CLR,,0.00,788.0,WeatherDisplay:10.37,2013-09-17 17:39:00,
2013-09-17 13:44:00,56.6,42.9,30.39,WSW,243,5.8,5.8,60,0.00,CLR,,0.00,777.0,WeatherDisplay:10.37,2013-09-17 17:44:00,
2013-09-17 13:49:00,56.6,42.4,30.39,NW,319,4.6,4.6,59,0.00,CLR,,0.00,772.0,WeatherDisplay:10.37,2013-09-17 17:49:00,
2013-09-17 13:54:00,56.5,41.9,30.39,WSW,245,3.5,3.5,58,0.00,CLR,,0.00,768.0,WeatherDisplay:10.37,2013-09-17 17:54:00,
2013-09-17 14:00:00,56.7,43.0,30.38,WNW,286,5.0,5.0,60,0.00,CLR,,0.00,761.0,WeatherDisplay:10.37,2013-09-17 18:00:00,
2013-09-17 14:05:00,56.8,43.1,30.39,WSW,257,6.9,6.9,60,0.00,CLR,,0.00,754.0,WeatherDisplay:10.37,2013-09-17 18:05:00,
2013-09-17 14:10:00,56.9,43.2,30.39,SW,223,5.8,5.8,60,0.00,CLR,,0.00,747.0,WeatherDisplay:10.37,2013-09-17 18:10:00,
2013-09-17 14:15:00,56.9,41.8,30.38,WNW,282,10.4,10.4,57,0.00,CLR,,0.00,744.0,WeatherDisplay:10.37,2013-09-17 18:15:00,
2013-09-17 14:20:00,57.0,43.7,30.38,WSW,250,5.0,5.0,61,0.00,CLR,,0.00,668.0,WeatherDisplay:10.37,2013-09-17 18:20:00,
2013-09-17 14:25:00,57.1,42.9,30.38,WSW,256,3.5,3.5,59,0.00,CLR,,0.00,724.0,WeatherDisplay:10.37,2013-09-17 18:25:00,
2013-09-17 14:30:00,57.1,42.5,30.38,West,274,3.5,3.5,58,0.00,CLR,,0.00,719.0,WeatherDisplay:10.37,2013-09-17 18:30:00,
2013-09-17 14:35:00,57.4,43.6,30.38,North,360,8.1,8.1,60,0.00,CLR,,0.00,707.0,WeatherDisplay:10.37,2013-09-17 18:35:00,
2013-09-17 14:41:00,57.5,43.7,30.38,WNW,286,6.9,6.9,60,0.00,CLR,,0.00,696.0,WeatherDisplay:10.37,2013-09-17 18:41:00,
2013-09-17 14:46:00,57.4,43.2,30.38,WSW,254,3.5,3.5,59,0.00,CLR,,0.00,686.0,WeatherDisplay:10.37,2013-09-17 18:46:00,
2013-09-17 14:51:00,57.5,43.3,30.37,WSW,257,4.6,4.6,59,0.00,CLR,,0.00,677.0,WeatherDisplay:10.37,2013-09-17 18:51:00,
2013-09-17 14:56:00,57.7,43.5,30.37,West,262,6.0,6.0,59,0.00,CLR,,0.00,666.0,WeatherDisplay:10.37,2013-09-17 18:56:00,
2013-09-17 15:01:00,57.7,43.5,30.37,West,267,5.8,5.8,59,0.00,CLR,,0.00,654.0,WeatherDisplay:10.37,2013-09-17 19:01:00,
2013-09-17 15:06:00,57.9,43.7,30.36,WSW,256,5.8,5.8,59,0.00,CLR,,0.00,585.0,WeatherDisplay:10.37,2013-09-17 19:06:00,
2013-09-17 15:11:00,58.2,43.5,30.36,WSW,256,4.0,4.0,58,0.00,CLR,,0.00,633.0,WeatherDisplay:10.37,2013-09-17 19:11:00,
2013-09-17 15:16:00,58.3,43.6,30.36,West,267,10.4,10.4,58,0.00,CLR,,0.00,622.0,WeatherDisplay:10.37,2013-09-17 19:16:00,
2013-09-17 15:21:00,58.2,43.5,30.36,WSW,249,3.5,3.5,58,0.00,CLR,,0.00,608.0,WeatherDisplay:10.37,2013-09-17 19:21:00,
2013-09-17 15:26:00,58.3,43.6,30.36,WSW,249,5.8,5.8,58,0.00,CLR,,0.00,598.0,WeatherDisplay:10.37,2013-09-17 19:26:00,
2013-09-17 15:31:00,58.6,44.3,30.35,West,267,7.0,7.0,59,0.00,CLR,,0.00,585.0,WeatherDisplay:10.37,2013-09-17 19:31:00,
2013-09-17 15:36:00,58.6,44.3,30.35,West,267,6.9,6.9,59,0.00,CLR,,0.00,573.0,WeatherDisplay:10.37,2013-09-17 19:36:00,
2013-09-17 15:41:00,58.6,43.9,30.35,West,266,6.0,6.0,58,0.00,CLR,,0.00,559.0,WeatherDisplay:10.37,2013-09-17 19:41:00,
2013-09-17 15:47:00,58.6,44.3,30.35,West,275,6.9,6.9,59,0.00,CLR,,0.00,545.0,WeatherDisplay:10.37,2013-09-17 19:47:00,
2013-09-17 15:52:00,58.6,43.9,30.35,WSW,252,3.5,3.5,58,0.00,FEW,,0.00,533.0,WeatherDisplay:10.37,2013-09-17 19:52:00,
2013-09-17 15:57:00,58.6,45.2,30.35,WSW,252,2.3,2.3,61,0.00,FEW,,0.00,519.0,WeatherDisplay:10.37,2013-09-17 19:57:00,
2013-09-17 16:02:00,58.9,43.7,30.35,WNW,286,6.9,6.9,57,0.00,FEW,,0.00,504.0,WeatherDisplay:10.37,2013-09-17 20:02:00,
2013-09-17 16:07:00,58.7,44.0,30.34,West,270,5.8,5.8,58,0.00,SCT,,0.00,490.0,WeatherDisplay:10.37,2013-09-17 20:07:00,
2013-09-17 16:12:00,58.6,44.3,30.34,WSW,257,3.5,3.5,59,0.00,SCT,,0.00,475.0,WeatherDisplay:10.37,2013-09-17 20:12:00,
2013-09-17 16:17:00,58.4,44.1,30.34,WSW,257,2.3,2.3,59,0.00,SCT,,0.00,459.0,WeatherDisplay:10.37,2013-09-17 20:17:00,
2013-09-17 16:22:00,58.5,44.7,30.34,West,259,5.0,5.0,60,0.00,SCT,,0.00,443.0,WeatherDisplay:10.37,2013-09-17 20:22:00,
2013-09-17 16:27:00,58.5,45.1,30.34,West,273,4.6,4.6,61,0.00,SCT,,0.00,432.0,WeatherDisplay:10.37,2013-09-17 20:27:00,
2013-09-17 16:32:00,58.4,44.1,30.34,WNW,285,5.8,5.8,59,0.00,SCT,,0.00,413.0,WeatherDisplay:10.37,2013-09-17 20:32:00,
2013-09-17 16:37:00,58.4,44.6,30.34,WNW,290,5.8,5.8,60,0.00,SCT,,0.00,322.0,WeatherDisplay:10.37,2013-09-17 20:37:00,
2013-09-17 16:42:00,58.4,44.6,30.34,WSW,242,4.0,4.0,60,0.00,BKN,,0.00,352.0,WeatherDisplay:10.37,2013-09-17 20:42:00,
2013-09-17 16:47:00,58.1,44.7,30.34,West,260,4.0,4.0,61,0.00,BKN,,0.00,62.0,WeatherDisplay:10.37,2013-09-17 20:47:00,
2013-09-17 16:52:00,57.8,45.3,30.34,West,272,5.8,5.8,63,0.00,BKN,,0.00,51.0,WeatherDisplay:10.37,2013-09-17 20:52:00,
2013-09-17 16:57:00,57.6,45.1,30.34,West,275,4.6,4.6,63,0.00,BKN,,0.00,58.0,WeatherDisplay:10.37,2013-09-17 20:57:00,
2013-09-17 17:02:00,57.3,44.4,30.34,West,263,4.0,4.0,62,0.00,BKN,,0.00,37.0,WeatherDisplay:10.37,2013-09-17 21:02:00,
2013-09-17 17:07:00,57.1,43.8,30.34,West,280,4.6,4.6,61,0.00,BKN,,0.00,63.0,WeatherDisplay:10.37,2013-09-17 21:07:00,
2013-09-17 17:12:00,56.9,44.8,30.34,WNW,288,6.0,6.0,64,0.00,OVC,,0.00,42.0,WeatherDisplay:10.37,2013-09-17 21:12:00,
2013-09-17 17:17:00,56.8,44.3,30.34,West,267,6.0,6.0,63,0.00,OVC,,0.00,42.0,WeatherDisplay:10.37,2013-09-17 21:17:00,
2013-09-17 17:22:00,56.6,44.1,30.34,West,276,5.8,5.8,63,0.00,BKN,,0.00,58.0,WeatherDisplay:10.37,2013-09-17 21:22:00,
2013-09-17 17:27:00,56.5,44.9,30.34,West,276,4.0,4.0,65,0.00,BKN,,0.00,42.0,WeatherDisplay:10.37,2013-09-17 21:27:00,
2013-09-17 17:32:00,56.4,44.4,30.34,West,273,7.0,7.0,64,0.00,BKN,,0.00,40.0,WeatherDisplay:10.37,2013-09-17 21:32:00,
2013-09-17 17:37:00,56.2,44.6,30.34,West,271,4.0,4.0,65,0.00,BKN,,0.00,42.0,WeatherDisplay:10.37,2013-09-17 21:37:00,
2013-09-17 17:42:00,56.0,44.4,30.33,West,271,4.6,4.6,65,0.00,OVC,,0.00,33.0,WeatherDisplay:10.37,2013-09-17 21:42:00,
2013-09-17 17:47:00,55.9,43.9,30.34,West,271,4.0,4.0,64,0.00,OVC,,0.00,30.0,WeatherDisplay:10.37,2013-09-17 21:47:00,
2013-09-17 17:52:00,55.8,44.6,30.33,West,271,2.3,2.3,66,0.00,OVC,,0.00,28.0,WeatherDisplay:10.37,2013-09-17 21:52:00,
2013-09-17 17:57:00,55.8,45.0,30.33,West,271,3.5,3.5,67,0.00,OVC,,0.00,28.0,WeatherDisplay:10.37,2013-09-17 21:57:00,
2013-09-17 18:02:00,55.7,44.9,30.33,West,271,1.2,1.2,67,0.00,OVC,,0.00,32.0,WeatherDisplay:10.37,2013-09-17 22:02:00,
2013-09-17 18:07:00,55.6,44.8,30.33,West,271,2.3,2.3,67,0.00,OVC,,0.00,26.0,WeatherDisplay:10.37,2013-09-17 22:07:00,
2013-09-17 18:12:00,55.5,45.1,30.33,West,271,2.3,2.3,68,0.00,OVC,,0.00,25.0,WeatherDisplay:10.37,2013-09-17 22:12:00,
2013-09-17 18:17:00,55.3,44.9,30.33,West,271,2.0,2.0,68,0.00,OVC,,0.00,23.0,WeatherDisplay:10.37,2013-09-17 22:17:00,
2013-09-17 18:22:00,55.1,45.5,30.33,West,271,2.3,2.3,70,0.00,OVC,,0.00,23.0,WeatherDisplay:10.37,2013-09-17 22:22:00,
2013-09-17 18:27:00,54.9,44.9,30.33,West,271,2.3,0.0,69,0.00,OVC,,0.00,19.0,WeatherDisplay:10.37,2013-09-17 22:27:00,
2013-09-17 18:32:00,54.7,45.5,30.33,West,271,1.2,0.0,71,0.00,OVC,,0.00,11.0,WeatherDisplay:10.37,2013-09-17 22:32:00,
2013-09-17 18:37:00,54.4,46.3,30.33,West,271,0.0,0.0,74,0.00,OVC,,0.00,11.0,WeatherDisplay:10.37,2013-09-17 22:37:00,
2013-09-17 18:42:00,53.6,46.2,30.33,West,271,1.2,1.2,76,0.00,OVC,,0.00,9.0,WeatherDisplay:10.37,2013-09-17 22:42:00,
2013-09-17 18:47:00,52.5,45.8,30.33,West,268,2.3,2.3,78,0.00,OVC,,0.00,7.0,WeatherDisplay:10.37,2013-09-17 22:47:00,
2013-09-17 18:52:00,51.9,45.9,30.33,West,268,1.2,0.0,80,0.00,OVC,,0.00,5.0,WeatherDisplay:10.37,2013-09-17 22:52:00,
2013-09-17 18:57:00,51.6,45.6,30.33,West,268,0.0,0.0,80,0.00,OVC,,0.00,0.0,WeatherDisplay:10.37,2013-09-17 22:57:00,
2013-09-17 19:02:00,51.3,45.3,30.33,West,268,0.0,0.0,80,0.00,OVC,,0.00,0.0,WeatherDisplay:10.37,2013-09-17 23:02:00,
2013-09-17 19:07:00,50.8,45.2,30.32,West,268,0.0,0.0,81,0.00,OVC,,0.00,0.0,WeatherDisplay:10.37,2013-09-17 23:07:00,
2013-09-17 19:12:00,50.3,45.0,30.32,West,268,0.0,0.0,82,0.00,OVC,,0.00,0.0,WeatherDisplay:10.37,2013-09-17 23:12:00,
2013-09-17 19:17:00,49.9,44.6,30.32,West,268,0.0,0.0,82,0.00,OVC,,0.00,0.0,WeatherDisplay:10.37,2013-09-17 23:17:00,
2013-09-17 19:22:00,49.3,44.0,30.32,West,268,0.0,0.0,82,0.00,OVC,,0.00,0.0,WeatherDisplay:10.37,2013-09-17 23:22:00,
2013-09-17 19:27:00,48.7,44.1,30.32,West,268,0.0,0.0,84,0.00,OVC,,0.00,0.0,WeatherDisplay:10.37,2013-09-17 23:27:00,
2013-09-17 19:32:00,48.3,44.0,30.32,West,268,1.2,0.0,85,0.00,OVC,,0.00,0.0,WeatherDisplay:10.37,2013-09-17 23:32:00,
2013-09-17 19:37:00,48.1,43.8,30.32,West,268,0.0,0.0,85,0.00,OVC,,0.00,0.0,WeatherDisplay:10.37,2013-09-17 23:37:00,
2013-09-17 19:42:00,47.8,43.8,30.32,West,268,0.0,0.0,86,0.00,OVC,,0.00,0.0,WeatherDisplay:10.37,2013-09-17 23:42:00,
2013-09-17 19:47:00,47.5,43.5,30.32,West,268,0.0,0.0,86,0.00,OVC,,0.00,0.0,WeatherDisplay:10.37,2013-09-17 23:47:00,
2013-09-17 19:52:00,47.1,43.4,30.33,West,268,0.0,0.0,87,0.00,OVC,,0.00,0.0,WeatherDisplay:10.37,2013-09-17 23:52:00,
2013-09-17 19:57:00,46.9,43.2,30.33,West,268,0.0,0.0,87,0.00,OVC,,0.00,0.0,WeatherDisplay:10.37,2013-09-17 23:57:00,
2013-09-17 20:02:00,46.6,42.9,30.33,West,268,0.0,0.0,87,0.00,OVC,,0.00,0.0,WeatherDisplay:10.37,2013-09-18 00:02:00,
2013-09-17 20:07:00,46.4,42.7,30.33,West,268,0.0,0.0,87,0.00,OVC,,0.00,0.0,WeatherDisplay:10.37,2013-09-18 00:07:00,
2013-09-17 20:12:00,46.0,42.6,30.33,West,268,1.0,1.0,88,0.00,OVC,,0.00,0.0,WeatherDisplay:10.37,2013-09-18 00:12:00,
2013-09-17 20:17:00,45.9,42.5,30.33,West,268,0.0,0.0,88,0.00,OVC,,0.00,0.0,WeatherDisplay:10.37,2013-09-18 00:17:00,
2013-09-17 20:22:00,45.7,42.6,30.34,West,268,1.2,0.0,89,0.00,OVC,,0.00,0.0,WeatherDisplay:10.37,2013-09-18 00:22:00,
2013-09-17 20:27:00,45.5,42.4,30.34,West,268,0.0,0.0,89,0.00,OVC,,0.00,0.0,WeatherDisplay:10.37,2013-09-18 00:27:00,
2013-09-17 20:32:00,45.3,42.2,30.34,West,268,0.0,0.0,89,0.00,OVC,,0.00,0.0,WeatherDisplay:10.37,2013-09-18 00:32:00,
2013-09-17 20:37:00,45.1,42.1,30.34,West,268,0.0,0.0,89,0.00,OVC,,0.00,0.0,WeatherDisplay:10.37,2013-09-18 00:37:00,
2013-09-17 20:42:00,44.9,42.1,30.34,West,268,0.0,0.0,90,0.00,OVC,,0.00,0.0,WeatherDisplay:10.37,2013-09-18 00:42:00,
2013-09-17 20:47:00,44.8,42.0,30.34,West,268,0.0,0.0,90,0.00,OVC,,0.00,0.0,WeatherDisplay:10.37,2013-09-18 00:47:00,
2013-09-17 20:52:00,44.5,41.5,30.33,West,268,0.0,0.0,89,0.00,OVC,,0.00,0.0,WeatherDisplay:10.37,2013-09-18 00:52:00,
2013-09-17 20:57:00,44.3,41.6,30.33,West,268,0.0,0.0,90,0.00,OVC,,0.00,0.0,WeatherDisplay:10.37,2013-09-18 00:57:00,
2013-09-17 21:02:00,44.2,41.5,30.33,West,268,0.0,0.0,90,0.00,OVC,,0.00,0.0,WeatherDisplay:10.37,2013-09-18 01:02:00,
2013-09-17 21:07:00,44.0,41.5,30.33,West,268,0.0,0.0,91,0.00,OVC,,0.00,0.0,WeatherDisplay:10.37,2013-09-18 01:07:00,
2013-09-17 21:12:00,43.9,41.4,30.33,West,268,0.0,0.0,91,0.00,OVC,,0.00,0.0,WeatherDisplay:10.37,2013-09-18 01:12:00,
2013-09-17 21:17:00,43.8,41.3,30.33,West,268,0.0,0.0,91,0.00,OVC,,0.00,0.0,WeatherDisplay:10.37,2013-09-18 01:17:00,
2013-09-17 21:22:00,43.6,41.1,30.33,West,268,0.0,0.0,91,0.00,OVC,,0.00,0.0,WeatherDisplay:10.37,2013-09-18 01:22:00,
2013-09-17 21:27:00,43.5,41.0,30.33,West,268,0.0,0.0,91,0.00,OVC,,0.00,0.0,WeatherDisplay:10.37,2013-09-18 01:27:00,
2013-09-17 21:32:00,43.4,40.9,30.33,West,268,0.0,0.0,91,0.00,OVC,,0.00,0.0,WeatherDisplay:10.37,2013-09-18 01:32:00,
2013-09-17 21:37:00,43.3,40.8,30.32,West,268,0.0,0.0,91,0.00,OVC,,0.00,0.0,WeatherDisplay:10.37,2013-09-18 01:37:00,
2013-09-17 21:42:00,43.2,41.0,30.32,West,268,0.0,0.0,92,0.00,OVC,,0.00,0.0,WeatherDisplay:10.37,2013-09-18 01:42:00,
2013-09-17 21:47:00,43.1,40.7,30.32,West,268,0.0,0.0,91,0.00,OVC,,0.00,0.0,WeatherDisplay:10.37,2013-09-18 01:47:00,
2013-09-17 21:52:00,42.9,40.5,30.32,West,268,0.0,0.0,91,0.00,OVC,,0.00,0.0,WeatherDisplay:10.37,2013-09-18 01:52:00,
2013-09-17 21:57:00,42.8,40.4,30.32,West,268,0.0,0.0,91,0.00,OVC,,0.00,0.0,WeatherDisplay:10.37,2013-09-18 01:57:00,
2013-09-17 22:02:00,42.6,40.4,30.32,West,268,0.0,0.0,92,0.00,OVC,,0.00,0.0,WeatherDisplay:10.37,2013-09-18 02:02:00,
2013-09-17 22:07:00,42.5,40.3,30.32,West,268,0.0,0.0,92,0.00,OVC,,0.00,0.0,WeatherDisplay:10.37,2013-09-18 02:07:00,
2013-09-17 22:12:00,42.4,40.2,30.32,West,268,1.0,0.0,92,0.00,OVC,,0.00,0.0,WeatherDisplay:10.37,2013-09-18 02:12:00,
2013-09-17 22:17:00,42.2,40.0,30.32,West,268,0.0,0.0,92,0.00,OVC,,0.00,0.0,WeatherDisplay:10.37,2013-09-18 02:17:00,
2013-09-17 22:22:00,42.0,39.8,30.32,West,268,0.0,0.0,92,0.00,OVC,,0.00,0.0,WeatherDisplay:10.37,2013-09-18 02:22:00,
2013-09-17 22:27:00,41.9,39.7,30.32,West,268,0.0,0.0,92,0.00,OVC,,0.00,0.0,WeatherDisplay:10.37,2013-09-18 02:27:00,
2013-09-17 22:33:00,41.8,39.6,30.32,West,268,0.0,0.0,92,0.00,OVC,,0.00,0.0,WeatherDisplay:10.37,2013-09-18 02:33:00,
2013-09-17 22:38:00,41.7,39.5,30.32,West,268,0.0,0.0,92,0.00,OVC,,0.00,0.0,WeatherDisplay:10.37,2013-09-18 02:38:00,
2013-09-17 22:43:00,41.5,39.3,30.32,West,268,0.0,0.0,92,0.00,OVC,,0.00,0.0,WeatherDisplay:10.37,2013-09-18 02:43:00,
2013-09-17 22:48:00,41.4,39.3,30.32,West,268,0.0,0.0,92,0.00,OVC,,0.00,0.0,WeatherDisplay:10.37,2013-09-18 02:48:00,
2013-09-17 22:53:00,41.2,39.1,30.32,West,268,0.0,0.0,92,0.00,OVC,,0.00,0.0,WeatherDisplay:10.37,2013-09-18 02:53:00,
2013-09-17 22:58:00,41.0,38.9,30.32,West,268,0.0,0.0,92,0.00,OVC,,0.00,0.0,WeatherDisplay:10.37,2013-09-18 02:58:00,
2013-09-17 23:03:00,40.9,38.8,30.32,West,268,0.0,0.0,92,0.00,OVC,,0.00,0.0,WeatherDisplay:10.37,2013-09-18 03:03:00,
2013-09-17 23:08:00,40.7,38.8,30.32,West,268,0.0,0.0,93,0.00,OVC,,0.00,0.0,WeatherDisplay:10.37,2013-09-18 03:08:00,
2013-09-17 23:13:00,40.7,38.8,30.32,West,268,1.2,0.0,93,0.00,OVC,,0.00,0.0,WeatherDisplay:10.37,2013-09-18 03:13:00,
2013-09-17 23:18:00,40.5,38.6,30.32,West,268,0.0,0.0,93,0.00,OVC,,0.00,0.0,WeatherDisplay:10.37,2013-09-18 03:18:00,
2013-09-17 23:23:00,40.4,38.5,30.32,West,268,0.0,0.0,93,0.00,OVC,,0.00,0.0,WeatherDisplay:10.37,2013-09-18 03:23:00,
2013-09-17 23:28:00,40.3,38.4,30.32,West,268,0.0,0.0,93,0.00,OVC,,0.00,0.0,WeatherDisplay:10.37,2013-09-18 03:28:00,
2013-09-17 23:33:00,40.2,38.3,30.32,West,268,0.0,0.0,93,0.00,OVC,,0.00,0.0,WeatherDisplay:10.37,2013-09-18 03:33:00,
2013-09-17 23:38:00,40.1,38.2,30.32,West,268,0.0,0.0,93,0.00,OVC,,0.00,0.0,WeatherDisplay:10.37,2013-09-18 03:38:00,
2013-09-17 23:43:00,40.0,38.1,30.32,West,268,0.0,0.0,93,0.00,OVC,,0.00,0.0,WeatherDisplay:10.37,2013-09-18 03:43:00,
2013-09-17 23:48:00,39.8,37.9,30.32,West,268,0.0,0.0,93,0.00,OVC,,0.00,0.0,WeatherDisplay:10.37,2013-09-18 03:48:00,
2013-09-17 23:53:00,39.7,37.8,30.32,West,268,0.0,0.0,93,0.00,OVC,,0.00,0.0,WeatherDisplay:10.37,2013-09-18 03:53:00,
2013-09-17 23:58:00,39.5,37.6,30.32,West,268,0.0,0.0,93,0.00,OVC,,0.00,0.0,WeatherDisplay:10.37,2013-09-18 03:58:00,